Showing default

COSMOS 2579, 61730

Orbit data source: Space-Track

COSMOS 2579, 61730 is a payload satellite owned by VVKO VKS (CIS) in SSO that was launched on Thu, 31 Oct 2024 UTC via a SOYUZ-2-1A launch vehicle from the Plesetsk Missile And Space Complex (PKMTR). Payloads include a variety of satellites, spacecraft, and rockets equipped with specific instruments for various scientific and technological missions. These include communications satellites like Starlink; space stations such as the ISS; scientific satellites like the Hubble; Earth observation satellites from companies like Planet Labs, Umbra, and HawkEye 360; GPS; miniature CubeSats for education and research; and military/defense satellites.

Loading next visibility...
COSMOS 2579 details
Identifier
61730, 2024-197A
Orbit
SSO
Last TLE update8 hours ago
Origin
Flag of CISVVKO VKS (CIS)
ManufacturerArsenal
MissionOperational spacecraft
Bus & MotorBARS, AOCS
Mass3,700 kg wet, ~3,500 kg dry
Launch date (UTC)
2024-10-31 (2 months ago)
Launch vehicle
SOYUZ-2-1A
Launch site
Plesetsk Missile And Space Complex (PKMTR)
Object type
Payload
Rocket body
Debris
Shape & HBRUnknown
Radar Cross SectionLarge (>1 m²)

Expand to show TLE details & history

TLE from 8 hours ago
0 COSMOS 2579
1 61730U 24197A   24361.23651438  .00009237  00000-0  40564-3 0  9991
2 61730  97.5611 269.8581 0010258  75.8106 284.4269 15.22112004  8528
Epoch: 2024-12-26T05:40Z
Definitive object data (Epoch: 2024-12-26T05:40:34.842Z)
Latitude
Longitude89.49412°
Altitude500.809 km
Speed7.615 km/s
True Right ascension17h 59m 25s
True Declination0° 00' 00"
Sunlit
Object was in daylight at TLE epoch
Visualization TLE readout
Latitude-38.05338°
Longitude95.74872°
Altitude516.752 km
Speed7.602 km/s
Apparent Right ascension21h 21m 56s
Apparent Declination-49° 57' 14"
Sunlit
Object is in daylight
Visualization observer readout
Local Sidereal Time12:45:30
Azimuth123.202° SE
Elevation-53.368°
Doppler factor1
Orbital elements
Apogee altitude503.493 km
Perigee altitude489.389 km
Semi-major axis6,874.578 km
Eccentricity0.0010258
Inclination97.5611°
RAAN269.8581°
Arg. of periapsis75.8106°
True anomaly284.31302°
Mean anomaly284.4269°
Eccentric anomaly284.36996°
Mean motion3.8078 °/min
BSTAR0.00040564
Orbital period94.54 mins
Loading maneuver chart data...
Loading historical data...
Loading historical data...
Loading historical data...
Loading historical data...
Loading historical data...
Loading historical data...
Loading historical data...
Other satellites on launch #197 in the year 2024 (2024-10-31 UTC)

COSMOS 2579 Visibility forecast

Observer location: undefined°, undefined

Span
Click to sort rows by Start time (UTC) header in descending order
Start Az.
Max El. time (UTC)
Max El. Az.
Max El.
End time (UTC)
End Az.
7 mins2024-12-26 18:24:50.247Z180.696° SSW2024-12-26 18:27:50.247Z226.036° WSW37.584°2024-12-26 18:31:50.247Z338.802° N
5 mins2024-12-27 07:29:50.247Z338.785° N2024-12-27 07:31:50.247Z273.005° WNW30.985°2024-12-27 07:34:50.247Z218.675° SW
|